EN

Hourly Weather Serpneve

Today, 22 October, Thursday

Time Temperature Precipitation Wind Pressure Humidity
00:00 +10°C° 0 mm 4 mps 751 mmHg 70%
01:00 +8°C° 0 mm 4 mps 751 mmHg 75%
02:00 +9°C° 0 mm 3 mps 750 mmHg 79%
03:00 +9°C° 0 mm 3 mps 750 mmHg 81%
04:00 +9°C° 0 mm 3 mps 750 mmHg 82%
05:00 +9°C° 0 mm 2 mps 750 mmHg 84%
06:00 +9°C° 0 mm 2 mps 750 mmHg 82%
07:00 +10°C° 0 mm 2 mps 750 mmHg 80%
08:00 +10°C° 0 mm 2 mps 750 mmHg 78%
09:00 +12°C° 0 mm 2 mps 750 mmHg 72%
10:00 +13°C° 0 mm 2 mps 751 mmHg 66%
11:00 +13°C° 0 mm 2 mps 751 mmHg 61%
12:00 +14°C° 0 mm 2 mps 751 mmHg 59%
13:00 +14°C° 0 mm 2 mps 751 mmHg 57%
14:00 +14°C° 0 mm 2 mps 750 mmHg 55%
15:00 +13°C° 0 mm 2 mps 750 mmHg 57%
16:00 +12°C° 0 mm 2 mps 750 mmHg 60%
17:00 +12°C° 0 mm 2 mps 749 mmHg 63%
18:00 +11°C° 0 mm 3 mps 750 mmHg 63%
19:00 +10°C° 0 mm 3 mps 750 mmHg 63%
20:00 +10°C° 0 mm 3 mps 750 mmHg 63%
21:00 +10°C° 0 mm 3 mps 749 mmHg 61%
22:00 +11°C° 0 mm 4 mps 749 mmHg 59%
23:00 +11°C° 0 mm 4 mps 749 mmHg 58%

Tomorrow, 23 October, Friday

Time Temperature Precipitation Wind Pressure Humidity
00:00 +11°C° 0 mm 4 mps 749 mmHg 57%
01:00 +11°C° 0 mm 4 mps 749 mmHg 56%
02:00 +11°C° 0 mm 4 mps 749 mmHg 55%
03:00 +10°C° 0 mm 3 mps 749 mmHg 58%
04:00 +10°C° 0 mm 3 mps 749 mmHg 62%
05:00 +10°C° 0 mm 3 mps 749 mmHg 65%
06:00 +10°C° 0 mm 2 mps 749 mmHg 65%
07:00 +12°C° 0 mm 2 mps 749 mmHg 65%
08:00 +13°C° 0 mm 2 mps 749 mmHg 65%
09:00 +13°C° 0 mm 3 mps 749 mmHg 61%
10:00 +14°C° 0 mm 3 mps 749 mmHg 57%
11:00 +17°C° 0 mm 3 mps 749 mmHg 54%
12:00 +17°C° 0 mm 3 mps 748 mmHg 50%
13:00 +18°C° 0 mm 4 mps 748 mmHg 47%
14:00 +19°C° 0 mm 4 mps 748 mmHg 43%
15:00 +18°C° 0 mm 4 mps 747 mmHg 45%
16:00 +17°C° 0 mm 3 mps 747 mmHg 46%
17:00 +14°C° 0 mm 3 mps 747 mmHg 48%
18:00 +14°C° 0 mm 3 mps 746 mmHg 49%
19:00 +13°C° 0 mm 3 mps 746 mmHg 50%
20:00 +13°C° 0 mm 3 mps 746 mmHg 51%
21:00 +13°C° 0 mm 3 mps 746 mmHg 51%
22:00 +13°C° 0 mm 3 mps 746 mmHg 51%
23:00 +13°C° 0 mm 3 mps 746 mmHg 51%

Day after tomorrow, 24 October, Saturday

Time Temperature Precipitation Wind Pressure Humidity
00:00 +13°C° 0 mm 3 mps 746 mmHg 53%
01:00 +13°C° 0 mm 3 mps 746 mmHg 54%
02:00 +13°C° 0 mm 2 mps 746 mmHg 56%
03:00 +13°C° 0 mm 2 mps 746 mmHg 58%
04:00 +13°C° 0 mm 2 mps 746 mmHg 61%
05:00 +12°C° 0 mm 2 mps 746 mmHg 64%
06:00 +13°C° 0 mm 1 mps 746 mmHg 64%
07:00 +13°C° 0 mm 1 mps 746 mmHg 64%
08:00 +12°C° 0 mm 0 mps 746 mmHg 63%
09:00 +15°C° 0 mm 1 mps 746 mmHg 59%
10:00 +16°C° 0 mm 1 mps 746 mmHg 56%
11:00 +17°C° 0 mm 2 mps 746 mmHg 52%
12:00 +17°C° 0 mm 2 mps 746 mmHg 50%
13:00 +18°C° 0 mm 2 mps 746 mmHg 48%
14:00 +18°C° 0 mm 2 mps 745 mmHg 46%
15:00 +18°C° 0 mm 1 mps 745 mmHg 50%
16:00 +16°C° 0 mm 1 mps 745 mmHg 54%
17:00 +14°C° 0 mm 0 mps 745 mmHg 58%
18:00 +13°C° 0 mm 0 mps 745 mmHg 60%
19:00 +14°C° 0 mm 1 mps 745 mmHg 62%
20:00 +13°C° 0 mm 1 mps 745 mmHg 64%
21:00 +13°C° 0 mm 1 mps 745 mmHg 64%
22:00 +13°C° 0 mm 2 mps 745 mmHg 64%
23:00 +13°C° 0 mm 2 mps 744 mmHg 63%

, 25 October, Sunday

Time Temperature Precipitation Wind Pressure Humidity
00:00 +13°C° 0 mm 2 mps 744 mmHg 63%
01:00 +12°C° 0 mm 3 mps 744 mmHg 63%
02:00 +11°C° 0 mm 3 mps 744 mmHg 63%
03:00 +12°C° 0 mm 3 mps 744 mmHg 68%
04:00 +12°C° 0 mm 4 mps 744 mmHg 72%
05:00 +12°C° 0 mm 4 mps 744 mmHg 76%
06:00 +12°C° 0 mm 5 mps 744 mmHg 77%
07:00 +11°C° 0 mm 6 mps 745 mmHg 77%
08:00 +13°C° 0 mm 6 mps 745 mmHg 78%
09:00 +12°C° 0 mm 7 mps 745 mmHg 74%
10:00 +14°C° 0 mm 7 mps 746 mmHg 70%
11:00 +14°C° 0 mm 7 mps 746 mmHg 66%
12:00 +15°C° 0 mm 6 mps 747 mmHg 62%
13:00 +15°C° 0 mm 6 mps 747 mmHg 58%
14:00 +15°C° 0 mm 6 mps 747 mmHg 54%
15:00 +14°C° 0 mm 5 mps 748 mmHg 58%
16:00 +13°C° 0 mm 4 mps 748 mmHg 63%
17:00 +12°C° 0 mm 3 mps 748 mmHg 67%
18:00 +12°C° 0 mm 3 mps 749 mmHg 69%
19:00 +12°C° 0 mm 3 mps 750 mmHg 70%
20:00 +12°C° 0 mm 3 mps 750 mmHg 72%
21:00 +11°C° 0 mm 3 mps 750 mmHg 76%
22:00 +9°C° 0 mm 2 mps 751 mmHg 80%
23:00 +8°C° 0 mm 2 mps 751 mmHg 85%

25 October, Sunday

Time Temperature Precipitation Wind Pressure Humidity
00:00 +13°C° 0 mm 2 mps 744 mmHg 63%
01:00 +12°C° 0 mm 3 mps 744 mmHg 63%
02:00 +11°C° 0 mm 3 mps 744 mmHg 63%
03:00 +12°C° 0 mm 3 mps 744 mmHg 68%
04:00 +12°C° 0 mm 4 mps 744 mmHg 72%
05:00 +12°C° 0 mm 4 mps 744 mmHg 76%
06:00 +12°C° 0 mm 5 mps 744 mmHg 77%
07:00 +11°C° 0 mm 6 mps 745 mmHg 77%
08:00 +13°C° 0 mm 6 mps 745 mmHg 78%
09:00 +12°C° 0 mm 7 mps 745 mmHg 74%
10:00 +14°C° 0 mm 7 mps 746 mmHg 70%
11:00 +14°C° 0 mm 7 mps 746 mmHg 66%
12:00 +15°C° 0 mm 6 mps 747 mmHg 62%
13:00 +15°C° 0 mm 6 mps 747 mmHg 58%
14:00 +15°C° 0 mm 6 mps 747 mmHg 54%
15:00 +14°C° 0 mm 5 mps 748 mmHg 58%
16:00 +13°C° 0 mm 4 mps 748 mmHg 63%
17:00 +12°C° 0 mm 3 mps 748 mmHg 67%
18:00 +12°C° 0 mm 3 mps 749 mmHg 69%
19:00 +12°C° 0 mm 3 mps 750 mmHg 70%
20:00 +12°C° 0 mm 3 mps 750 mmHg 72%
21:00 +11°C° 0 mm 3 mps 750 mmHg 76%
22:00 +9°C° 0 mm 2 mps 751 mmHg 80%
23:00 +8°C° 0 mm 2 mps 751 mmHg 85%

26 October, Monday

Time Temperature Precipitation Wind Pressure Humidity
00:00 +8°C° 0 mm 2 mps 751 mmHg 85%
01:00 +7°C° 0 mm 2 mps 751 mmHg 85%
02:00 +7°C° 0 mm 2 mps 751 mmHg 85%
03:00 +7°C° 0 mm 2 mps 752 mmHg 86%
04:00 +6°C° 0 mm 2 mps 752 mmHg 87%
05:00 +6°C° 0 mm 2 mps 752 mmHg 88%
06:00 +7°C° 0 mm 2 mps 752 mmHg 84%
07:00 +7°C° 0 mm 2 mps 753 mmHg 81%
08:00 +8°C° 0 mm 2 mps 753 mmHg 77%
09:00 +9°C° 0 mm 2 mps 753 mmHg 70%
10:00 +10°C° 0 mm 2 mps 753 mmHg 63%
11:00 +12°C° 0 mm 2 mps 754 mmHg 56%
12:00 +13°C° 0 mm 2 mps 753 mmHg 53%
13:00 +13°C° 0 mm 2 mps 753 mmHg 51%
14:00 +14°C° 0 mm 2 mps 753 mmHg 48%
15:00 +13°C° 0 mm 2 mps 753 mmHg 53%
16:00 +12°C° 0 mm 2 mps 753 mmHg 57%
17:00 +10°C° 0 mm 2 mps 753 mmHg 61%
18:00 +9°C° 0 mm 2 mps 753 mmHg 63%
19:00 +9°C° 0 mm 2 mps 753 mmHg 65%
20:00 +9°C° 0 mm 3 mps 754 mmHg 67%
21:00 +8°C° 0 mm 3 mps 754 mmHg 69%
22:00 +8°C° 0 mm 3 mps 754 mmHg 72%
23:00 +7°C° 0 mm 3 mps 754 mmHg 74%

27 October, Tuesday

Time Temperature Precipitation Wind Pressure Humidity
00:00 +7°C° 0 mm 3 mps 754 mmHg 75%
01:00 +7°C° 0 mm 3 mps 754 mmHg 76%
02:00 +6°C° 0 mm 4 mps 754 mmHg 77%
03:00 +5°C° 0 mm 3 mps 754 mmHg 77%
04:00 +5°C° 0 mm 3 mps 754 mmHg 78%
05:00 +5°C° 0 mm 3 mps 754 mmHg 78%
06:00 +5°C° 0 mm 4 mps 754 mmHg 74%
07:00 +6°C° 0 mm 4 mps 754 mmHg 70%
08:00 +7°C° 0 mm 4 mps 755 mmHg 66%
09:00 +8°C° 0 mm 5 mps 755 mmHg 60%
10:00 +9°C° 0 mm 5 mps 755 mmHg 55%
11:00 +12°C° 0 mm 5 mps 755 mmHg 49%
12:00 +12°C° 0 mm 5 mps 755 mmHg 47%
13:00 +12°C° 0 mm 5 mps 754 mmHg 44%
14:00 +13°C° 0 mm 5 mps 754 mmHg 42%
15:00 +12°C° 0 mm 4 mps 754 mmHg 45%
16:00 +10°C° 0 mm 4 mps 754 mmHg 48%
17:00 +9°C° 0 mm 3 mps 754 mmHg 51%
18:00 +9°C° 0 mm 3 mps 754 mmHg 52%
19:00 +8°C° 0 mm 4 mps 754 mmHg 52%
20:00 +7°C° 0 mm 4 mps 754 mmHg 53%
21:00 +7°C° 0 mm 4 mps 754 mmHg 53%
22:00 +7°C° 0 mm 4 mps 754 mmHg 52%
23:00 +7°C° 0 mm 4 mps 754 mmHg 52%
Show more

We Need Your Consent

Meteoprog and our Service Providers may store and access personal data such as cookies, device identifiers or other similar technologies on your device and process such data to personalise content and ads, as well as provide social media features and to analyse the traffic.

  • Store and/or access information on your device

    Cookies, device identifiers or other information can be stored or accessed on your device for the purposes indicated above.

  • Personalised ads and content, ad and content measurement, audience insights, and products development

    Ads and content can be personalised based on a profile. More data can be added to better personalise ads and content. Ad and content performance can be measured. Insights about the audience who saw the ads and content can be derived. Such data can be used to develop or improve user’s experience, systems and software.

By clicking ‘I Agree’ you will allow the use of indicated cookies, device identifiers, web beacons or other similar technologies. Your settings can be changed in the browser on your device.

For certain purposes, legitimate interests may be relied on, rather than consent. You can read more about this in our Privacy and Cookie Policy.